Orbital Elements at Epoch 2459200.5 (2020-Dec-17.0) TDB
Reference: JPL 19 (heliocentric ecliptic J2000)
Element | Value | Uncertainty (1-sigma) | Units |
e | .1545418914695174 | 4.3806e-08 | |
a | 3.24682735251787 | 2.6359e-08 | au |
q | 2.745056512184793 | 1.3601e-07 | au |
i | 2.597491320561117 | 4.7357e-06 | deg |
node | 91.11471870167597 | 0.00010958 | deg |
peri | 342.5865364407925 | 0.00011082 | deg |
M | 259.4671248539271 | 1.9724e-05 | deg |
tp | 2459797.250543488301 (2022-Aug-05.75054349) | 0.00012053 | TDB |
period | 2136.914868331809 5.85 | 2.6022e-05 7.124e-08 | d yr |
n | .168467169813384 | 2.0515e-09 | deg/d |
Q | 3.748598192850947 | 3.0432e-08 | au |
|
| | Orbit Determination Parameters
Additional Information
|